Showing default

TOMORROW-S5, 63234

Orbit data source: Space-Track

TOMORROW-S5, 63234 is a payload satellite owned by Tomorrow.io (US) in SSO that was launched on Sat, 15 Mar 2025 UTC via an FALCON 9 launch vehicle from the Air Force Western Test Range (AFWTR). Payload-class satellites include a variety of spacecraft equipped with specific instruments for various scientific and technological missions. These include communications satellites like Starlink; space stations such as the ISS; scientific satellites like the Hubble; Earth observation satellites from companies like Planet Labs, Umbra, and HawkEye 360; GPS; miniature CubeSats for education and research; and military/defense satellites.

Loading next visibility...
Identifier
63234, 2025-052AA
Orbit
SSO
Country
Flag of USUS
Related business
Manufacturer
Blue Canyon
Mission
Operational Commercial Weather
Bus & Motor
CUBESAT 6U, Unknown motor
Mass
12 kg wet, 12 kg dry
Launch date (UTC)
2025-03-15 (1 year ago)
Launch vehicle
FALCON 9
Launch site
Air Force Western Test Range (AFWTR)
Object type
Payload
Rocket body
Debris
Shape & HBR
Box + 2 Pan, 1.0 m
Radar Cross Section
0.138 m², Medium (>0.1 m² and < 1m²)

Expand to show TLE details & history
Last TLE update: 5 hours ago

TLE from 5 hours ago
0 TOMORROW-S5
1 63234U 25052AA  26166.95684139  .00004084  00000-0  17943-3 0  9991
2 63234  97.3994  59.6649 0007691 143.5715 216.6046 15.22452836 69658
Epoch: 2026-06-15T22:57Z
TLE epoch observation values (Epoch: 2026-06-15T22:57:51.096Z)
Latitude
-0.00002°
Longitude
170.96622°
Altitude
505.787 km
Speed
7.609 km/s
True Right ascension
03h 58m 39s
True Declination
0° 00' 00"
Sunlit
Object was in daylight at epoch
Visualization orbit readout
Latitude
Unknown
Longitude
Unknown
Altitude
Unknown
Speed
Unknown
Apparent Right ascension
Unknown
Apparent Declination
Unknown
Sunlit
N/A
Visualization observer readout
Local Sidereal Time
14:49:24
Azimuth
Unknown
Elevation
Unknown
Doppler factor
Unknown
Orbital elements
Apogee altitude
500.693 km
Perigee altitude
490.121 km
Semi-major axis
6,873.544 km
Eccentricity
0.00077
Inclination
97.3994°
RAAN
59.6649°
Arg. of periapsis
143.5715°
True anomaly
216.55209°
Mean anomaly
216.6046°
Eccentric anomaly
216.57834°
Mean motion
3.80866 °/min
Orbital period
94.52 mins
BSTAR
0.00017943
Loading maneuver chart data...
Computing Atmospheric mass density...
Loading historical data...
Loading historical data...
Loading historical data...
Loading historical data...
Loading historical data...
Loading historical data...
Loading historical data...

Documentation

Showing up to 5 results
|